Location: Bluff Heights
(33.7692°N, 118.1592°W)
Time: 09:09:11
(UTC+00:00)

Tiros 1 - Pass Details

Date: 30 July 2021
Orbit: 630 x 663 km, 48.4° (Epoch: 22 September)

Event Time Altitude Azimuth Distance (km) Brightness Sun altitude
Rises 04:16:47 0° 283° (WNW) 2,974 11.9 -15.6°
Reaches altitude 10° 04:19:53 10° 303° (WNW) 2,057 11.1 -16.2°
Maximum altitude 04:23:00 17° 345° (NNW) 1,628 9.9 -16.7°
Drops below altitude 10° 04:26:06 10° 26° (NNE) 2,045 9.8 -17.2°
Sets 04:29:11 0° 47° (NE) 2,949 10.5 -17.7°
